Location: Treviso
(45.6669°N, 12.2430°E)
Time: 00:39:39
(UTC+02:00)

ISS - Pass Details

Date: 24 May 2017
Orbit: 402 x 408 km, 51.6° (Epoch: 30 May)

Event Time Altitude Azimuth Distance (km) Brightness Sun altitude
Rises 23:27:14 0° 256° (WSW) 2,328 0.2 -19.6°
Reaches altitude 10° 23:29:21 10° 261° (W) 1,469 -0.8 -19.7°
Maximum altitude 23:32:34 50° 339° (NNW) 526 -2.9 -20.0°
Drops below altitude 10° 23:35:47 10° 56° (NE) 1,470 -0.9 -20.2°
Sets 23:37:55 0° 62° (ENE) 2,331 0.1 -20.3°
